TimeBST,TemperatureF,Dew PointF,Humidity,Sea Level PressureIn,VisibilityMPH,Wind Direction,Wind SpeedMPH,Gust SpeedMPH,PrecipitationIn,Events,Conditions,WindDirDegrees,DateUTC
6:50 AM,44.6,41.0,87,30.18,6.2,West,2.3,-,N/A,,Mostly Cloudy,270,2012-10-25 05:50:00
7:20 AM,44.6,42.8,93,30.18,6.2,WNW,1.2,-,N/A,,Mostly Cloudy,300,2012-10-25 06:20:00
7:50 AM,44.6,42.8,93,30.18,6.2,West,3.5,-,N/A,,Mostly Cloudy,260,2012-10-25 06:50:00
8:20 AM,42.8,41.0,93,30.18,6.2,Calm,Calm,-,N/A,,Mostly Cloudy,0,2012-10-25 07:20:00
8:50 AM,42.8,41.0,93,30.18,6.2,NW,1.2,-,N/A,,Mostly Cloudy,310,2012-10-25 07:50:00
9:20 AM,44.6,39.2,81,30.18,6.2,NW,4.6,-,N/A,,Scattered Clouds,320,2012-10-25 08:20:00
9:50 AM,44.6,39.2,81,30.18,6.2,NW,4.6,-,N/A,,Scattered Clouds,310,2012-10-25 08:50:00
10:20 AM,46.4,41.0,81,30.18,6.2,WNW,2.3,-,N/A,,Partly Cloudy,290,2012-10-25 09:20:00
10:50 AM,48.2,41.0,76,30.18,6.2,WNW,5.8,-,N/A,,Partly Cloudy,290,2012-10-25 09:50:00
11:20 AM,48.2,37.4,66,30.18,6.2,NNW,3.5,-,N/A,,Partly Cloudy,330,2012-10-25 10:20:00
11:50 AM,48.2,37.4,66,30.18,6.2,NW,3.5,-,N/A,,Partly Cloudy,320,2012-10-25 10:50:00
12:20 PM,48.2,39.2,71,30.18,6.2,WNW,4.6,-,N/A,,Partly Cloudy,300,2012-10-25 11:20:00
12:50 PM,50.0,39.2,66,30.18,6.2,West,3.5,-,N/A,,Partly Cloudy,280,2012-10-25 11:50:00
1:20 PM,50.0,37.4,62,30.15,6.2,NW,5.8,-,N/A,,Partly Cloudy,320,2012-10-25 12:20:00
1:50 PM,50.0,37.4,62,30.15,6.2,North,5.8,-,N/A,,Scattered Clouds,10,2012-10-25 12:50:00
2:20 PM,50.0,39.2,66,30.18,6.2,North,9.2,25.3,N/A,Rain,Rain Showers,360,2012-10-25 13:20:00
2:50 PM,44.6,39.2,81,30.18,6.2,NNE,12.7,-,N/A,,Mostly Cloudy,30,2012-10-25 13:50:00
3:20 PM,44.6,35.6,71,30.18,6.2,NNE,16.1,27.6,N/A,,Mostly Cloudy,20,2012-10-25 14:20:00
3:50 PM,42.8,32.0,66,30.21,6.2,North,10.4,-,N/A,,Scattered Clouds,10,2012-10-25 14:50:00
4:20 PM,42.8,32.0,66,30.21,6.2,NNE,10.4,21.9,N/A,,Scattered Clouds,20,2012-10-25 15:20:00
4:50 PM,42.8,30.2,61,30.21,6.2,NE,9.2,-,N/A,,Scattered Clouds,40,2012-10-25 15:50:00
5:20 PM,42.8,30.2,61,30.21,6.2,NE,10.4,-,N/A,,Scattered Clouds,40,2012-10-25 16:20:00
5:50 PM,41.0,30.2,65,30.24,6.2,NNE,8.1,-,N/A,,Scattered Clouds,30,2012-10-25 16:50:00
6:20 PM,41.0,28.4,61,30.24,6.2,NNE,2.3,-,N/A,,Scattered Clouds,30,2012-10-25 17:20:00
6:50 PM,41.0,30.2,65,30.24,6.2,NE,2.3,-,N/A,,Scattered Clouds,40,2012-10-25 17:50:00
7:20 PM,39.2,30.2,70,30.24,6.2,North,2.3,-,N/A,,Scattered Clouds,350,2012-10-25 18:20:00
7:50 PM,39.2,28.4,65,30.27,6.2,North,2.3,-,N/A,,Partly Cloudy,350,2012-10-25 18:50:00
8:20 PM,39.2,28.4,65,30.27,6.2,NNE,3.5,-,N/A,,Partly Cloudy,20,2012-10-25 19:20:00
9:20 PM,37.4,28.4,70,30.27,6.2,North,3.5,-,N/A,,Partly Cloudy,350,2012-10-25 20:20:00
9:50 PM,37.4,28.4,70,30.24,-9999.0,North,6.9,-,N/A,,Clear,360,2012-10-25 20:50:00